Weather in Sredniye Tigany

Russia / Republic of Tatarstan     55°09′37″N   50°11′44″E
temp.,
°C
wind,
m/s
gust,
m/s
humid.,
%
clouds,
%
prec.,
mm/h
press.,
hPa
HPBL,
m
23 april, fri
fri2300:00+5s6128182 0.0 1025307
03:00+4s5108864 0.0 1026267
06:00+5sse488956 0.0 1026258
09:00+7s467798 0.0 1027373
12:00+13se445950 0.0 10251132
15:00+14ese435489 0.1 10231453
18:00+12se3563100 0.0 1023131
21:00+9e367499 0.0 1022117
24 april, sat
sat2400:00+9e4775100 0.0 1019180
03:00+7e4884100 0.0 1018231
06:00+7e4790100 0.0 1016483
09:00+7e3691100 1.4 1015418
12:00+7e3693100 1.3 1013410
15:00+7ese3590100 2.4 1012413
18:00+7ese3593100 0.6 1011258
21:00+6se3795100 0.8 1009262
25 april, sun
sun2500:00+6sse6119399 0.3 1006349
03:00+7sse71392100 1.7 1004581
06:00+5wsw71290100 1.4 1004936
09:00+7sw71162100 1.4 10051561
12:00+6wsw8127575 0.3 10071192
15:00+10wsw914496 0.5 10082288
18:00+8wsw8135034 0.1 10101020
21:00+6wsw8145943 0.3 1012739
26 april, mon
mon2600:00+4sw816675 0.0 1013704
03:00+3sw816694 0.0 1014674
06:00+4sw815683 0.0 1015704
09:00+9sw914460 0.0 10151680
12:00+11sw10133762 0.0 10152053
15:00+11wsw81344100 0.0 10142255
18:00+9w376495 0.0 1014383
21:00+7ssw336989 0.0 101445
27 april, tue
tue2700:00+7se117084 0.0 101211
03:00+4sse35705 0.0 101176
06:00+5sse48676 0.0 1010210
09:00+10s68475 0.0 10081562
12:00+11sw8105957 0.3 10071501
15:00+9w7105276 0.7 10081866
18:00+8wsw59525 0.0 1008664
21:00+6sw5970100 0.0 1008359